STARLINK-35442

Last updated on Sun Dec 07 2025 00:02:05 GMT+0000 (Coordinated Universal Time)

1 66319U 25253A 25340.47650528 .00073133 00000+0 17399-2 0 9990 2 66319 43.0027 21.9722 0002161 271.0383 89.0226 15.40722032 5952
UTC large
Height (km)
Speed (km/s)
/
Latitude / Longitude
Inclination (degrees)
Orbital Period (minutes)
Azimuth
Elevation
Range (km)
Doppler Factor

Next 0 passes for location: London (51.5072 / 0.1276)

Sorry there are no passes over London.